Dewpoint
11 11 11 12 13 13 13 13 14 14 13 12 12 12 12 12 11 11 11 11 11 11 11 11 11 12 12 12 12 12 12 12 12 13 14 14 15 16 17 18 19 19 20 20 20 21 22 23 24 24 25 25 24 24 23 23 23 22 21 20 20 20 20 20 20 20 19 19 19
10 11 11 13 13 13 13 13 13 13 13 12 12 12 12 12 11 11 11 11 12 12 12 11 12 12 11 11 12 12 11 11 11 12 13 13 15 16 17 18 19 20 20 20 21 22 23 24 25 26 26 25 25 24 23 23 23 22 21 21 20 20 20 20 20 20 19 19 19
11 11 11 11 11 11 11 11 11 11 11 12 12 12 12 12 12 11 11 12 12 12 12 11 12 12 12 12 12 12 12 12 11 12 12 13 14 15 16 18 18 19 20 21 21 22 23 25 27 27 26 25 25 24 24 23 23 22 22 21 21 20 20 20 20 20 20 19 19
11 11 11 11 11 11 12 12 11 11 11 12 13 13 12 12 12 12 12 12 12 12 12 12 12 13 13 13 13 12 13 13 13 12 12 12 13 15 16 18 18 19 20 20 21 22 23 25 27 27 26 25 25 25 25 24 24 23 23 22 22 21 21 21 20 20 20 20 20
11 11 11 12 12 12 12 13 12 12 12 13 13 12 12 12 12 12 12 12 12 12 12 12 13 13 13 13 13 13 13 13 15 14 12 12 13 15 16 17 18 19 20 20 21 22 23 24 26 26 26 25 25 25 26 26 25 24 24 23 22 22 21 21 21 21 21 21 21
11 12 12 13 13 13 13 14 13 13 13 13 13 12 12 11 12 12 12 12 12 12 13 14 14 14 14 14 13 13 13 13 14 14 13 13 14 15 15 16 18 20 20 20 21 22 23 24 25 26 26 25 25 25 26 26 26 26 24 24 23 22 22 22 22 22 22 22 22
12 12 13 13 14 14 15 15 14 14 14 14 13 12 12 12 12 12 12 12 12 12 13 14 14 14 14 14 14 14 14 14 14 14 13 13 14 15 15 16 18 20 20 20 21 22 22 22 24 25 26 26 25 25 25 26 27 26 26 24 24 23 23 24 24 24 24 23 23
13 14 14 14 15 15 15 15 15 15 14 13 13 12 12 13 13 13 13 12 12 13 14 14 14 14 14 15 15 15 15 15 14 14 14 14 14 15 15 16 18 19 20 21 21 22 21 21 22 24 24 25 25 25 25 25 26 26 26 26 25 24 24 24 25 25 24 24 24
14 14 15 15 15 16 16 16 16 15 14 13 13 13 13 14 14 14 13 13 13 14 14 14 14 15 15 15 16 16 16 16 15 15 15 15 15 15 16 17 18 19 20 20 22 22 21 20 21 23 24 24 25 25 25 25 26 26 26 26 26 25 25 25 26 25 25 25 24
13 14 14 15 15 15 16 16 16 15 15 14 14 14 14 16 15 15 14 14 15 15 14 14 15 15 16 16 17 17 17 17 17 16 16 16 16 17 17 18 19 20 20 21 22 22 21 20 20 22 23 24 24 24 25 25 26 26 26 26 26 26 26 26 27 27 27 26 26
14 14 14 14 15 16 17 16 16 16 15 15 15 15 15 16 15 15 15 15 15 14 14 15 16 16 17 17 18 18 18 18 17 17 17 17 17 18 18 19 20 20 21 22 22 22 21 20 20 22 23 23 24 24 25 25 25 25 25 24 25 25 26 26 27 27 28 28 28
14 14 15 15 16 17 17 16 16 16 15 15 15 15 15 15 15 15 16 16 15 14 15 16 17 18 18 18 18 18 18 18 18 17 17 17 18 18 19 20 20 21 21 22 23 23 22 21 21 22 23 23 24 24 25 25 24 24 24 24 24 24 25 25 26 27 27 27 28
14 15 15 16 16 17 17 17 17 16 16 15 15 15 15 15 15 16 16 15 15 15 16 17 18 19 19 19 19 19 18 18 18 17 17 18 18 19 19 20 20 21 22 23 23 23 23 22 22 22 22 23 24 24 24 24 24 24 24 23 23 24 24 25 26 26 26 26 27
15 15 15 16 17 17 17 18 17 17 16 15 15 15 15 15 15 16 15 15 16 16 17 18 18 18 19 19 19 19 18 18 18 18 18 18 18 19 19 20 20 21 22 23 24 24 24 23 23 22 22 22 23 23 23 23 24 24 23 23 23 23 24 24 25 25 26 26 26
15 15 16 17 17 17 18 18 17 17 16 15 15 16 16 15 16 16 16 16 17 17 18 18 18 19 19 19 19 19 18 18 18 18 18 18 18 19 19 20 20 22 23 24 24 24 25 24 23 22 22 22 22 22 22 22 23 23 24 24 23 23 23 24 24 25 25 26 26
15 16 17 17 17 18 18 18 17 16 16 16 16 17 16 16 16 16 17 18 18 18 18 19 19 20 20 20 20 19 19 19 19 19 19 19 19 19 19 20 20 22 23 24 24 25 26 25 23 22 22 21 21 21 21 22 23 23 24 24 24 23 23 23 24 24 24 25 25
15 16 17 18 18 18 19 18 18 17 17 17 18 18 17 17 17 17 18 19 18 18 18 19 20 20 20 20 20 20 20 20 20 20 20 20 20 20 20 20 21 22 24 25 25 26 26 25 23 22 21 21 21 21 21 22 23 23 24 24 23 23 23 23 23 23 23 24 24
16 17 18 18 19 19 20 20 19 19 19 19 19 19 19 18 18 19 19 20 19 19 19 19 20 20 20 20 20 20 21 21 21 21 22 22 22 21 21 21 22 23 24 25 25 26 26 24 22 20 20 21 21 21 22 22 23 23 23 23 23 22 22 22 22 22 23 23 24
17 18 18 19 19 20 20 20 20 20 20 20 20 20 20 20 20 20 20 20 20 20 20 20 20 19 20 20 20 20 21 21 22 23 23 24 23 23 23 23 23 23 24 25 26 26 26 23 20 19 19 20 20 21 22 22 22 22 22 22 22 21 21 21 22 22 23 23 24
18 18 19 19 20 20 20 20 20 20 20 20 20 21 21 20 20 20 20 21 20 20 20 20 20 19 19 20 20 20 21 21 22 22 22 23 23 24 24 24 23 24 24 24 25 26 25 23 20 20 20 20 20 20 21 22 22 22 22 21 21 21 21 21 21 22 22 23 24
19 19 20 20 20 20 20 20 20 20 20 21 21 21 21 21 21 21 21 21 21 20 20 20 20 20 20 20 20 20 21 21 21 21 21 21 23 23 23 23 22 23 24 24 25 26 26 24 22 21 20 20 20 20 21 22 22 21 21 21 21 20 20 20 20 21 22 23 23
20 20 20 20 20 20 20 20 20 20 20 20 21 21 21 21 21 21 21 21 21 20 20 20 20 20 20 20 21 21 21 21 21 21 21 21 22 22 22 21 23 24 24 23 24 26 27 25 23 20 20 20 20 20 21 22 21 20 20 20 20 20 20 20 20 21 21 22 23
20 20 20 21 21 21 21 20 20 20 20 20 20 21 21 21 21 21 21 21 21 21 21 21 21 21 21 22 22 22 21 20 20 20 20 20 21 21 22 21 23 24 24 23 24 26 27 25 23 21 20 20 20 21 22 23 21 20 20 20 20 20 20 20 20 20 21 22 23
21 21 21 21 21 21 21 20 20 20 20 20 20 20 20 20 21 21 21 21 22 22 22 22 22 21 21 22 22 21 20 20 20 20 20 20 20 21 21 22 23 23 23 23 24 26 29 28 24 22 21 21 21 22 22 20 19 19 20 20 20 20 20 20 20 20 21 22 22
20 21 21 20 20 20 20 20 20 20 20 20 20 20 20 20 20 21 21 22 22 22 22 22 22 21 21 21 20 20 20 19 19 19 20 20 20 20 20 20 20 22 24 25 25 26 29 31 27 23 21 22 21 20 19 18 18 19 20 20 20 20 20 20 20 20 21 22 23
20 21 21 21 20 20 20 20 20 20 20 20 20 20 20 20 20 21 21 21 21 21 21 21 21 21 20 20 19 19 18 18 19 19 20 20 20 20 20 20 21 23 24 26 25 25 27 32 30 26 23 22 20 18 16 16 18 20 20 20 20 19 19 18 18 18 19 21 23
21 21 21 21 20 20 20 20 20 20 19 19 20 20 20 20 20 20 20 21 21 21 21 21 20 20 19 18 18 18 17 17 18 19 20 20 20 20 18 18 20 23 25 25 25 25 26 29 32 30 26 21 19 17 16 15 18 19 19 19 18 18 18 17 15 15 15 18 21
20 20 20 20 20 20 20 20 20 19 19 19 20 20 20 20 19 19 20 20 20 20 20 19 19 18 17 16 16 17 18 17 17 18 19 20 19 19 18 17 20 23 24 24 25 25 25 26 30 32 30 25 21 20 18 16 17 17 15 14 13 12 11 11 12 11 11 14 18
19 19 19 20 20 20 19 20 19 19 19 19 19 19 19 19 18 18 18 19 19 19 18 17 17 16 16 16 16 17 17 17 17 18 18 19 18 18 17 17 18 20 22 24 24 25 25 25 27 30 32 30 23 18 16 16 16 14 11 10 9 7 6 8 9 9 8 9 12
18 19 19 20 20 20 19 19 19 19 19 19 19 19 18 18 18 18 18 18 18 17 17 17 16 16 16 16 16 16 16 16 17 17 18 18 18 18 17 17 18 20 22 24 24 25 25 25 25 27 30 33 28 23 20 17 15 11 9 8 7 7 7 7 7 7 6 6 9
19 19 20 20 20 20 20 20 19 19 19 19 19 19 18 18 18 17 16 16 15 15 16 16 16 15 15 15 15 15 15 15 16 17 18 18 18 17 16 16 18 20 23 24 24 24 25 25 25 25 27 31 30 27 23 20 17 15 11 9 9 9 10 10 10 9 7 6 8
19 20 20 20 20 20 20 19 19 19 19 19 19 19 18 18 17 16 15 15 15 14 14 14 15 15 15 14 14 15 15 15 16 17 17 18 17 16 16 16 17 20 22 23 24 24 24 25 25 25 26 29 30 28 25 22 20 17 15 14 15 14 13 15 13 10 8 8 9
20 20 20 20 20 20 20 19 20 20 19 19 19 19 18 18 17 17 16 15 14 13 13 13 14 14 14 13 13 14 15 16 17 17 17 17 16 15 15 15 15 18 21 23 24 24 24 25 25 25 25 27 28 27 25 23 21 19 17 16 15 14 13 13 12 11 11 11 11
20 20 21 20 20 20 20 20 20 20 20 19 19 19 19 19 18 18 17 15 14 13 13 13 13 13 13 13 13 14 15 16 16 16 16 15 15 14 14 15 16 20 22 23 24 24 24 24 25 25 25 25 24 24 23 22 21 20 19 18 16 15 15 16 17 17 17 16 13
20 20 20 20 20 20 20 20 20 20 19 19 19 19 19 19 18 17 16 15 15 14 14 13 13 13 13 13 13 14 15 15 15 15 15 15 15 14 14 15 15 18 21 23 24 24 24 25 25 25 25 24 22 21 20 20 20 20 20 19 18 18 18 19 20 20 20 19 15
20 20 20 20 20 19 19 19 20 19 19 19 19 19 19 18 18 17 16 16 16 15 14 14 13 13 12 12 13 14 14 14 14 13 13 14 14 14 14 14 15 18 21 23 24 24 24 25 25 25 24 23 20 19 19 19 20 20 20 20 19 18 18 18 20 20 20 21 18
19 19 19 19 19 19 19 19 19 19 19 19 19 19 19 18 18 17 17 17 16 15 15 14 14 13 13 13 13 14 14 14 14 13 13 14 14 15 15 15 15 18 21 24 24 25 25 25 25 25 24 21 19 18 17 18 19 19 20 20 20 19 19 18 18 20 21 22 21
19 19 19 19 19 19 19 19 19 19 19 19 19 19 19 18 18 17 17 17 16 15 15 15 14 14 14 15 14 14 15 15 15 14 13 14 15 15 16 16 17 19 21 24 24 25 25 26 26 25 24 21 19 18 17 17 18 19 20 20 20 20 20 19 17 18 19 22 21
18 18 19 19 19 19 19 19 19 19 19 19 19 19 18 18 17 17 17 17 16 15 15 15 15 15 15 16 15 15 15 15 15 15 15 14 15 17 18 18 18 19 21 24 24 25 25 26 26 26 25 23 20 19 18 17 18 19 20 20 20 20 20 20 19 18 18 20 20
17 18 18 18 18 18 18 18 18 19 19 19 19 19 18 18 18 18 17 17 16 15 15 15 15 15 15 16 15 15 15 15 15 16 16 16 17 20 20 19 19 19 20 23 24 25 25 26 27 27 26 24 21 20 20 19 20 20 20 20 20 20 20 20 20 19 19 18 19
17 17 18 18 18 18 18 18 18 18 19 19 19 19 18 18 18 17 17 16 15 15 15 15 15 15 15 16 16 15 15 16 16 17 17 18 18 20 20 19 19 19 19 21 23 24 25 26 27 28 27 25 23 22 21 21 21 20 20 20 20 20 20 20 20 20 20 19 18